#timestamp,LO_Frequency,Hit 
1500609615.5,286047112.0,N
1500609635.3,286047114.6,N
1500609655.2,286047113.0,N
1500609675.9,286047112.7,N
1500609695.7,286047112.9,N
1500609715.6,286047112.2,N
1500609735.4,286047112.2,N
1500609755.2,286047112.9,N
1500609775.1,286047112.0,N
1500609776.0,286047112.0,N
1500609795.8,286047114.6,N
1500609815.6,286047116.0,N
1500609835.5,286047116.2,N
1500609855.3,286047113.7,N
1500609875.1,286047116.0,N
1500609895.9,286047113.9,N
1500609915.7,286047113.3,N
1500609935.5,286047116.0,N
1500609955.4,286047115.8,N
1500609975.2,286047115.7,N
1500609995.0,286047115.8,N
1500609995.9,286047115.8,N
1500610015.8,286047114.9,N
1500610035.6,286047118.0,N
1500610055.4,286047115.1,N
1500610075.2,286047115.5,N
1500610095.1,286047115.5,N
1500610096.0,286047115.5,N
1500610115.8,286047117.0,N
1500610135.6,286047116.5,N
1500610155.5,286047115.3,N
1500610175.3,286047115.3,N
1500610195.1,286047117.3,N
1500610215.9,286047119.6,N
1500610235.7,286047115.5,N
1500610255.5,286047117.2,N
1500610275.4,286047115.1,N
1500610295.2,286047117.5,N
1500610315.0,286047119.6,N
1500610315.9,286047119.6,N
1500610335.8,286047117.8,N
1500610355.6,286047117.4,N
1500610375.4,286047116.5,N
1500610395.3,286047117.2,N
1500610415.1,286047117.7,N
1500610416.0,286047117.7,N
1500610435.8,286047118.0,N
1500610455.7,286047116.1,N
1500610475.5,286047114.6,N
1500610495.3,286047115.0,N
1500610515.2,286047117.8,N
1500610535.9,286047115.1,N
1500610555.7,286047117.1,N
1500610575.6,286047117.3,N
1500610595.4,286047115.4,N
1500610615.2,286047115.4,N
1500610635.1,286047119.5,N
1500610636.0,286047119.5,N
1500610655.8,286047119.4,N
1500610675.6,286047119.4,N
1500610695.5,286047121.0,N
1500610715.3,286047119.8,N
1500610735.1,286047122.2,N
1500610755.9,286047120.6,N
1500610775.7,286047119.6,N
1500610795.5,286047117.0,N
1500610815.4,286047119.6,N
1500610835.2,286047118.9,N
1500610855.0,286047119.2,N
1500610855.9,286047119.2,N
1500610875.8,286047119.2,N
1500610895.6,286047116.9,N
1500610915.4,286047118.5,N
1500610935.2,286047120.0,N
1500610955.1,286047120.1,N
1500610956.0,286047120.1,N
1500610975.8,286047121.7,N
1500610995.6,286047121.3,N
1500611015.5,286047119.9,N
1500611035.3,286047122.8,Y
1500611055.2,286047028.5,N
1500611075.9,286047030.7,N
1500611095.7,286047030.2,N
1500611115.6,286047032.2,N
1500611135.4,286047034.7,N
1500611155.2,286047034.6,N
1500611175.0,286047030.1,N
1500611175.9,286047030.1,N
1500611195.8,286047034.6,N
1500611215.6,286047032.7,N
1500611235.4,286047031.9,N
1500611255.3,286047032.1,N
1500611275.1,286047034.3,N
1500611295.8,286047033.8,N
1500611315.7,286047035.2,N
1500611335.5,286047034.5,N
1500611355.3,286047030.6,N
1500611375.2,286047032.8,N
1500611395.9,286047034.0,N
1500611415.7,286047034.5,N
1500611435.6,286047030.3,N
1500611455.4,286047031.9,N
1500611475.2,286047033.6,N
1500611495.1,286047030.8,N
1500611496.0,286047030.8,N
1500611515.8,286047033.2,N
1500611535.6,286047031.7,N
1500611555.5,286047032.8,N
1500611575.3,286047030.8,N
1500611595.1,286047032.4,N
1500611615.8,286047030.5,N
1500611635.7,286047033.2,N
1500611655.5,286047030.1,N
1500611675.3,286047033.2,N
1500611695.2,286047032.9,N
1500611715.0,286047033.5,N
1500611715.9,286047033.5,N
1500611735.7,286047036.4,N
1500611755.6,286047032.8,N
1500611775.4,286047034.5,N
1500611795.2,286047036.0,N
1500611815.1,286047034.1,N
1500611816.0,286047034.1,N
1500611835.8,286047030.3,N
1500611855.6,286047030.2,N
1500611875.5,286047031.6,N
1500611895.3,286047028.9,N
1500611915.1,286047033.2,N
1500611935.9,286047032.4,N
1500611955.7,286047032.7,N
1500611975.5,286047033.8,N
1500611995.4,286047033.7,N
1500612015.2,286047035.4,N
1500612035.0,286047032.2,N
1500612035.9,286047032.2,N
1500612055.8,286047030.7,N
1500612075.6,286047030.2,N
1500612095.4,286047030.1,N
1500612115.3,286047030.5,N
1500612135.1,286047034.5,N
1500612136.0,286047034.5,N
1500612155.8,286047031.8,N
1500612175.7,286047032.6,N
1500612195.5,286047033.3,N
1500612215.3,286047035.5,N
1500612235.2,286047035.9,N
1500612255.9,286047037.6,N
1500612275.7,286047037.0,N
1500612295.6,286047036.7,N
1500612315.4,286047033.8,N
1500612335.2,286047031.9,N
1500612355.0,286047032.7,N
1500612356.0,286047032.7,N
1500612375.8,286047032.8,N
1500612395.6,286047033.4,N
1500612415.4,286047035.6,N
1500612435.3,286047035.0,N
1500612455.1,286047035.7,N
1500612475.8,286047037.5,N
1500612495.7,286047039.2,N
1500612515.5,286047039.2,N
1500612535.3,286047038.4,N
1500612555.2,286047038.2,N
1500612575.9,286047040.0,N
1500612595.7,286047042.4,N
1500612615.6,286047042.4,N
1500612635.4,286047036.9,N
1500612655.2,286047036.8,N
1500612675.1,286047037.0,N
1500612676.0,286047037.0,N
1500612695.8,286047039.1,N
1500612715.6,286047036.5,N
1500612735.5,286047041.2,N
1500612755.3,286047036.5,N
1500612775.1,286047039.3,N
1500612795.9,286047040.7,N
1500612815.7,286047041.1,N
1500612835.5,286047038.9,N
1500612855.4,286047036.9,N
1500612875.2,286047039.1,N
1500612895.0,286047038.5,N
1500612895.9,286047038.5,N
1500612915.8,286047040.9,N
1500612935.6,286047042.2,N
1500612955.4,286047038.8,N
1500612975.2,286047038.8,N
1500612995.1,286047037.0,N
1500612996.0,286047037.0,N
1500613015.8,286047038.7,N
1500613035.6,286047038.4,N
1500613055.5,286047038.6,N
1500613075.3,286047038.4,N
1500613095.1,286047038.9,N
1500613115.9,286047038.5,N
1500613135.7,286047040.9,N
1500613155.5,286047040.5,N
1500613175.4,286047041.3,N
1500613195.2,286047042.2,N
